Ana Sayfa
METAR-TAF:

METAR-TAF

Havaalanları :

Henderson-Oxford Airport

Oxford, Kuzey Carolina, Amerika Birleşik Devletleri

Enlem: 36-21-42N, Boylam: 078-31-45W, yükseklik: 161 m

Güncel hava durumu gözlemi

Rapor saat 07:15 UTC de 6 dakika önce yapıldı.
Sakin rüzgar
Sıcaklık 7°C
Nem 100%
Basınç 1013 hPa
Görüş mesafesi: 4.8 km
400 ft yükseklikte çok bulutlu
çisenti

METAR: KHNZ 250715Z AUTO 00000KT 3SM DZ OVC004 07/07 A2991 RMK AO2 T00700068

Saat: 02:21 (07:21 UTC)


TAF: eksik

4.000'den fazla havaalanı için hava durumu gözlemleri ve tahminleri (METAR ve TAF raporları).

Kullanılabilir istasyonlar harita üzerinde sarı ve kırmızı noktalarla gösterilir.

İstasyonun adını görmek için fareyi noktanın üzerinde gezdirin.

Sonrasında hava gözlem ve tahminlerini görmek için tıklayın.

Haritayı değiştirmek için: yaklaştırmak için siyah artı işaretli yeşil düğmeye ve uzaklaştırmak için de eksi işaretli düğmeye hızla tıklayın; bitişik haritalar için yeşil okları kullanın.


METAR-TAF: